STARLINK-35972, 66638

Orbit data source: Space-Track

STARLINK-35972, 66638 is a payload satellite owned by SpaceX/Seattle (US) in LEO that was launched on Sun, 23 Nov 2025 UTC via an FALCON 9 launch vehicle from the Air Force Western Test Range (AFWTR). Payload-class satellites include a variety of spacecraft equipped with specific instruments for various scientific and technological missions. These include communications satellites like Starlink; space stations such as the ISS; scientific satellites like the Hubble; Earth observation satellites from companies like Planet Labs, Umbra, and HawkEye 360; GPS; miniature CubeSats for education and research; and military/defense satellites.

Loading next visibility...
Identifier
66638, 2025-271X
Orbit
LEO
Country
Flag of USUS
Related business
Manufacturer
SpaceX/Seattle
Mission
Operational Commercial Communications
Bus & Motor
STARLINK V2MO, Unknown motor
Mass
575 kg wet, ~530 kg dry
Launch date (UTC)
2025-11-23 (5 months ago)
Launch vehicle
FALCON 9
Launch site
Air Force Western Test Range (AFWTR)
Object type
Payload
Rocket body
Debris
Shape & HBR
Box + 2 Pan, 17.7 m
Radar Cross Section
36.964 m²

Expand to show TLE details & history
Last TLE update: 1 day ago

TLE from 1 day ago
0 STARLINK-35972
1 66638U 25271X   26127.54220888  .00017821  00000-0  61210-3 0  9993
2 66638  53.1586 226.8229 0001233  71.4627 288.6508 15.30214158 26573
Epoch: 2026-05-07T13:00Z
TLE epoch observation values (Epoch: 2026-05-07T13:00:46.847Z)
Latitude
0.00002°
Longitude
166.24086°
Altitude
475.802 km
Speed
7.629 km/s
True Right ascension
15h 07m 17s
True Declination
0° 00' 00"
Sunlit
Object was in full shadow at epoch
Visualization orbit readout
Latitude
Unknown
Longitude
Unknown
Altitude
Unknown
Speed
Unknown
Apparent Right ascension
Unknown
Apparent Declination
Unknown
Sunlit
N/A
Visualization observer readout
Local Sidereal Time
20:51:53
Azimuth
Unknown
Elevation
Unknown
Doppler factor
Unknown
Orbital elements
Apogee altitude
476.275 km
Perigee altitude
474.584 km
Semi-major axis
6,853.566 km
Eccentricity
0.00012
Inclination
53.1586°
RAAN
226.8229°
Arg. of periapsis
71.4627°
True anomaly
288.63741°
Mean anomaly
288.6508°
Eccentric anomaly
288.64411°
Mean motion
3.82532 °/min
Orbital period
94.11 mins
BSTAR
0.0006121
Loading maneuver chart data...
Computing Atmospheric mass density...
Loading historical data...
Loading historical data...
Loading historical data...
Loading historical data...
Loading historical data...
Loading historical data...
Loading historical data...

Documentation

Showing up to 5 results
|